sat.trackr.live / text

‹ back to catalog

STARLINK-34804

NORAD 65026 · 2025-161M

PAYLOAD ACTIVE UNKNOWN

§ Identity

Operator
Country
US
Launch date
2025-07-30
Launch site
AFWTR
Launch vehicle
Mass (kg)
RCS (m²)

Purposes: comms

External: N2YO · Heavens-Above · Gunter

§ Orbital elements

Epoch: 2026-09-20T00:00:47.510496Z

Period
93.85 min
Inclination
53.1564°
Eccentricity
0.0000892
Mean motion
15.34411125 rev/d
Perigee alt
462.1 km
Apogee alt
463.3 km
Semi-major
6,840.8 km
B*
7.8644e-4
RAAN
109.9505°
Arg perigee
86.1741°
Mean anomaly
273.9363°
Rev number
6,511

§ Raw data

STARLINK-348041 65026U 25161M   26263.00054989  .00026297  00000+0  78644-3 0  99952 65026  53.1564 109.9505 0000892  86.1741 273.9363 15.34411125 65113

JSON: /api/v1/satellites/65026 · /tle

For live sub-satellite position, see the globe view (requires WebGL).

§ Visibility from observer

Set your observer location to see the next 7 days of passes ≥ 10°. The values pass through the URL so the page stays shareable.

No JS? Fill the form by hand. The geolocation button needs JavaScript.